Location: Zagreb
(45.8000°N, 16.0000°E)
Time: 09:18:08
(UTC+02:00)

Courier 1B Rocket - Pass Details

Date: 10 August 2022
Orbit: 920 x 1202 km, 28.2° (Epoch: 25 September)

Event Time Altitude Azimuth Distance (km) Brightness Sun altitude
Rises 17:33:52 0° 213° (SSW) 3,553 8.5 26.2°
Reaches altitude 10° 17:38:34 10° 182° (S) 2,645 7.4 25.4°
Maximum altitude 17:40:32 11° 163° (SSE) 2,558 7.2 25.0°
Drops below altitude 10° 17:42:31 10° 145° (SE) 2,689 7.1 24.7°
Sets 17:47:24 0° 114° (ESE) 3,705 7.5 23.8°
